ASA64 PANC-PAJN

Flight info

Callsign ASA64
Flight time 1h 12m
Altitude 37000
Route NOEND CUSHI
Aircraft B737/M-SDE2E3FGHIRWXY/LB1

Departure

Time 2026-04-12 02:08
Airport Ted Stevens Anchorage International Airport (PANC)

Arrival

Time 2026-04-12 03:20
Airport Juneau International Airport (PAJN)
Time Latitude Longitude Altitude Speed Heading
2026-04-12 01:54 61.17469 -149.98419 109 ft 0 kts 82°
2026-04-12 02:00 61.17467 -149.98443 108 ft 4 kts 82°
2026-04-12 02:00 61.17463 -149.98499 108 ft 4 kts 81°
2026-04-12 02:00 61.17460 -149.98549 108 ft 4 kts 106°
2026-04-12 02:01 61.17474 -149.98590 105 ft 4 kts 153°
2026-04-12 02:01 61.17482 -149.98597 105 ft 0 kts 160°
2026-04-12 02:03 61.17481 -149.98597 105 ft 0 kts 160°
2026-04-12 02:03 61.17468 -149.98586 104 ft 4 kts 158°
2026-04-12 02:03 61.17428 -149.98557 107 ft 7 kts 175°
2026-04-12 02:04 61.17372 -149.98609 108 ft 11 kts 206°
2026-04-12 02:04 61.17299 -149.98708 110 ft 14 kts 216°
2026-04-12 02:04 61.17214 -149.98850 111 ft 17 kts 231°
2026-04-12 02:04 61.17142 -149.99034 114 ft 16 kts 231°
2026-04-12 02:05 61.17125 -149.99252 118 ft 15 kts 270°
2026-04-12 02:05 61.17125 -149.99477 122 ft 17 kts 270°
2026-04-12 02:05 61.17125 -149.99714 127 ft 16 kts 270°
2026-04-12 02:05 61.17125 -149.99948 131 ft 16 kts 270°
2026-04-12 02:06 61.17125 -150.00166 135 ft 15 kts 269°
2026-04-12 02:06 61.17124 -150.00385 136 ft 16 kts 269°
2026-04-12 02:06 61.17124 -150.00639 136 ft 19 kts 270°
2026-04-12 02:06 61.17060 -150.00818 134 ft 18 kts 179°
2026-04-12 02:07 61.16977 -150.00671 136 ft 18 kts 95°
2026-04-12 02:07 61.16975 -150.00210 133 ft 63 kts 90°
2026-04-12 02:07 61.16976 -149.98777 119 ft 132 kts 90°
2026-04-12 02:07 61.16979 -149.96498 224 ft 173 kts 90°
2026-04-12 02:08 61.16973 -149.94090 1115 ft 163 kts 91°
2026-04-12 02:08 61.16951 -149.91721 1803 ft 168 kts 91°
2026-04-12 02:08 61.16908 -149.89286 2419 ft 174 kts 92°
2026-04-12 02:08 61.16859 -149.86571 2700 ft 202 kts 92°
2026-04-12 02:09 61.16804 -149.83476 2942 ft 227 kts 92°
2026-04-12 02:09 61.16741 -149.80081 3355 ft 241 kts 92°
2026-04-12 02:09 61.16670 -149.76429 3725 ft 262 kts 92°
2026-04-12 02:09 61.16593 -149.72611 4487 ft 268 kts 92°
2026-04-12 02:10 61.16512 -149.68745 5316 ft 270 kts 92°
2026-04-12 02:10 61.16428 -149.64821 6130 ft 275 kts 92°
2026-04-12 02:10 61.16341 -149.60838 6960 ft 280 kts 92°
2026-04-12 02:10 61.16250 -149.56776 7824 ft 284 kts 92°
2026-04-12 02:11 61.16188 -149.54061 8431 ft 286 kts 92°
2026-04-12 02:11 61.16093 -149.49922 9295 ft 290 kts 92°
2026-04-12 02:11 61.15996 -149.45740 10248 ft 290 kts 93°
2026-04-12 02:11 61.15894 -149.41445 10753 ft 310 kts 93°
2026-04-12 02:12 61.15782 -149.36775 10953 ft 337 kts 93°
2026-04-12 02:12 61.15659 -149.31747 11133 ft 363 kts 93°
2026-04-12 02:12 61.15526 -149.26374 11326 ft 385 kts 93°
2026-04-12 02:12 61.15384 -149.20713 11643 ft 400 kts 93°
2026-04-12 02:13 61.15234 -149.14899 12222 ft 406 kts 93°
2026-04-12 02:13 61.15082 -149.09065 13081 ft 404 kts 93°
2026-04-12 02:13 61.14927 -149.03217 13614 ft 412 kts 93°
2026-04-12 02:13 61.14766 -148.97250 14142 ft 418 kts 93°
2026-04-12 02:14 61.14601 -148.91217 14644 ft 423 kts 93°
2026-04-12 02:14 61.14431 -148.85102 15194 ft 426 kts 93°
2026-04-12 02:14 61.14257 -148.78966 15842 ft 428 kts 93°
2026-04-12 02:14 61.14080 -148.72794 16418 ft 430 kts 93°
2026-04-12 02:15 61.13900 -148.66637 17185 ft 429 kts 93°
2026-04-12 02:15 61.13718 -148.60441 17713 ft 434 kts 94°
2026-04-12 02:15 61.13528 -148.54122 18016 ft 443 kts 94°
2026-04-12 02:15 61.13293 -148.47761 18542 ft 445 kts 97°
2026-04-12 02:16 61.12661 -148.41485 19011 ft 448 kts 106°
2026-04-12 02:16 61.11741 -148.35289 19280 ft 453 kts 108°
2026-04-12 02:16 61.10770 -148.29084 19817 ft 452 kts 108°
2026-04-12 02:16 61.09807 -148.23003 20460 ft 452 kts 108°
2026-04-12 02:17 61.08829 -148.16806 21012 ft 453 kts 108°
2026-04-12 02:17 61.07859 -148.10609 21482 ft 456 kts 108°
2026-04-12 02:17 61.06882 -148.04315 21773 ft 461 kts 108°
2026-04-12 02:17 61.05907 -147.98005 22266 ft 463 kts 108°
2026-04-12 02:18 61.04927 -147.91652 22714 ft 464 kts 108°
2026-04-12 02:18 61.03943 -147.85285 23071 ft 468 kts 108°
2026-04-12 02:18 61.02946 -147.78848 23360 ft 473 kts 108°
2026-04-12 02:18 61.01939 -147.72374 23650 ft 476 kts 108°
2026-04-12 02:19 61.00937 -147.65951 24110 ft 475 kts 108°
2026-04-12 02:19 60.99920 -147.59465 24507 ft 477 kts 108°
2026-04-12 02:19 60.98896 -147.52961 24803 ft 480 kts 108°
2026-04-12 02:19 60.97858 -147.46387 25036 ft 484 kts 108°
2026-04-12 02:20 60.96811 -147.39789 25350 ft 485 kts 108°
2026-04-12 02:20 60.95760 -147.33185 25658 ft 487 kts 108°
2026-04-12 02:20 60.94701 -147.26556 25841 ft 490 kts 108°
2026-04-12 02:20 60.93632 -147.19894 26260 ft 485 kts 108°
2026-04-12 02:21 60.92584 -147.13388 27150 ft 473 kts 108°
2026-04-12 02:21 60.91555 -147.07019 27879 ft 467 kts 108°
2026-04-12 02:21 60.90527 -147.00678 28239 ft 470 kts 108°
2026-04-12 02:21 60.89483 -146.94260 28458 ft 475 kts 108°
2026-04-12 02:22 60.88432 -146.87825 28764 ft 477 kts 109°
2026-04-12 02:22 60.87375 -146.81376 29225 ft 475 kts 109°
2026-04-12 02:22 60.86321 -146.74970 29732 ft 472 kts 109°
2026-04-12 02:22 60.85270 -146.68606 30180 ft 471 kts 109°
2026-04-12 02:23 60.84228 -146.62313 30587 ft 471 kts 109°
2026-04-12 02:23 60.83172 -146.55959 30989 ft 470 kts 109°
2026-04-12 02:23 60.82099 -146.49526 31376 ft 471 kts 109°
2026-04-12 02:23 60.81053 -146.43281 31756 ft 470 kts 109°
2026-04-12 02:24 60.79994 -146.36972 32217 ft 467 kts 109°
2026-04-12 02:24 60.78936 -146.30696 32609 ft 466 kts 109°
2026-04-12 02:24 60.77872 -146.24409 32850 ft 468 kts 109°
2026-04-12 02:24 60.76802 -146.18100 33121 ft 469 kts 109°
2026-04-12 02:25 60.75735 -146.11838 33659 ft 464 kts 109°
2026-04-12 02:25 60.74675 -146.05629 34008 ft 463 kts 109°
2026-04-12 02:25 60.73609 -145.99414 34261 ft 464 kts 109°
2026-04-12 02:25 60.72519 -145.93076 34379 ft 468 kts 109°
2026-04-12 02:26 60.71455 -145.86911 34854 ft 462 kts 109°
2026-04-12 02:26 60.70375 -145.80680 35287 ft 459 kts 109°
2026-04-12 02:26 60.69307 -145.74528 35465 ft 462 kts 109°
2026-04-12 02:26 60.68222 -145.68305 35521 ft 467 kts 109°
2026-04-12 02:27 60.67149 -145.62174 35893 ft 462 kts 110°
2026-04-12 02:27 60.66074 -145.56045 36374 ft 457 kts 110°
2026-04-12 02:27 60.63905 -145.43747 36540 ft 465 kts 110°
2026-04-12 02:28 60.62805 -145.37541 36813 ft 462 kts 110°
2026-04-12 02:28 60.61720 -145.31438 37243 ft 457 kts 110°
2026-04-12 02:28 60.59528 -145.19170 37405 ft 464 kts 110°
2026-04-12 02:29 60.57296 -145.06758 37714 ft 466 kts 110°
2026-04-12 02:29 60.56185 -145.00610 38111 ft 461 kts 110°
2026-04-12 02:29 60.55081 -144.94519 38434 ft 458 kts 110°
2026-04-12 02:30 60.53977 -144.88452 38603 ft 458 kts 110°
2026-04-12 02:30 60.52867 -144.82368 38684 ft 460 kts 110°
2026-04-12 02:30 60.51748 -144.76252 38814 ft 461 kts 110°
2026-04-12 02:30 60.50628 -144.70154 38983 ft 461 kts 110°
2026-04-12 02:31 60.48371 -144.57919 38994 ft 463 kts 110°
2026-04-12 02:31 60.46121 -144.45802 38999 ft 461 kts 111°
2026-04-12 02:32 60.43858 -144.33686 39003 ft 459 kts 111°
2026-04-12 02:32 60.41589 -144.21619 38996 ft 458 kts 111°
2026-04-12 02:33 60.39314 -144.09590 39006 ft 458 kts 111°
2026-04-12 02:33 60.37025 -143.97566 39007 ft 458 kts 111°
2026-04-12 02:34 60.34724 -143.85549 39006 ft 459 kts 111°
2026-04-12 02:34 60.32408 -143.73531 39000 ft 460 kts 111°
2026-04-12 02:35 60.30078 -143.61508 39001 ft 461 kts 111°
2026-04-12 02:35 60.27731 -143.49477 38998 ft 462 kts 111°
2026-04-12 02:36 60.25369 -143.37438 39000 ft 462 kts 111°
2026-04-12 02:36 60.22993 -143.25403 39009 ft 463 kts 112°
2026-04-12 02:37 60.20606 -143.13381 38996 ft 463 kts 112°
2026-04-12 02:37 60.18208 -143.01382 39001 ft 462 kts 112°
2026-04-12 02:38 60.15803 -142.89414 39000 ft 462 kts 112°
2026-04-12 02:38 60.13392 -142.77488 39004 ft 461 kts 112°
2026-04-12 02:39 60.10969 -142.65577 39002 ft 461 kts 112°
2026-04-12 02:39 60.08537 -142.53686 38993 ft 461 kts 112°
2026-04-12 02:40 60.06098 -142.41834 39007 ft 460 kts 112°
2026-04-12 02:40 60.03663 -142.30072 39001 ft 460 kts 112°
2026-04-12 02:41 60.01205 -142.18261 39001 ft 460 kts 112°
2026-04-12 02:41 59.98737 -142.06474 38997 ft 460 kts 112°
2026-04-12 02:42 59.96262 -141.94721 39000 ft 459 kts 113°
2026-04-12 02:43 59.92525 -141.77103 39005 ft 459 kts 113°
2026-04-12 02:43 59.90021 -141.65380 38994 ft 460 kts 113°
2026-04-12 02:44 59.87506 -141.53673 39001 ft 460 kts 113°
2026-04-12 02:44 59.84996 -141.42051 39002 ft 460 kts 113°
2026-04-12 02:45 59.82461 -141.30380 39007 ft 460 kts 113°
2026-04-12 02:45 59.79911 -141.18707 39001 ft 460 kts 114°
2026-04-12 02:46 59.77355 -141.07072 39003 ft 460 kts 114°
2026-04-12 02:46 59.74784 -140.95432 39001 ft 460 kts 114°
2026-04-12 02:47 59.72202 -140.83806 38992 ft 460 kts 114°
2026-04-12 02:47 59.69611 -140.72208 39004 ft 461 kts 114°
2026-04-12 02:48 59.67011 -140.60630 38996 ft 461 kts 114°
2026-04-12 02:48 59.64400 -140.49063 39004 ft 461 kts 114°
2026-04-12 02:49 59.61779 -140.37519 39005 ft 461 kts 114°
2026-04-12 02:49 59.59145 -140.25981 38998 ft 460 kts 114°
2026-04-12 02:50 59.56504 -140.14473 38995 ft 460 kts 114°
2026-04-12 02:50 59.53853 -140.02984 38999 ft 460 kts 114°
2026-04-12 02:51 59.51191 -139.91508 39003 ft 460 kts 115°
2026-04-12 02:51 59.48518 -139.80049 38991 ft 460 kts 115°
2026-04-12 02:52 59.45853 -139.68683 39001 ft 460 kts 115°
2026-04-12 02:52 59.43163 -139.57269 38994 ft 460 kts 115°
2026-04-12 02:53 59.40464 -139.45877 39003 ft 460 kts 115°
2026-04-12 02:53 59.36391 -139.28801 38998 ft 460 kts 115°
2026-04-12 02:54 59.33668 -139.17461 39002 ft 460 kts 115°
2026-04-12 02:54 59.30933 -139.06126 39005 ft 460 kts 115°
2026-04-12 02:55 59.29583 -139.00550 39004 ft 460 kts 115°
2026-04-12 02:55 59.26831 -138.89238 39000 ft 460 kts 115°
2026-04-12 02:56 59.24073 -138.77956 39000 ft 460 kts 116°
2026-04-12 02:56 59.21301 -138.66679 39000 ft 461 kts 116°
2026-04-12 02:57 59.18989 -138.57313 39005 ft 461 kts 116°
2026-04-12 02:57 59.16200 -138.46070 39002 ft 461 kts 116°
2026-04-12 02:58 59.12945 -138.33020 39004 ft 461 kts 116°
2026-04-12 02:58 59.10135 -138.21816 38992 ft 461 kts 116°
2026-04-12 02:59 59.07769 -138.12428 38987 ft 462 kts 116°
2026-04-12 02:59 59.04951 -138.01295 39018 ft 462 kts 116°
2026-04-12 03:00 59.02102 -137.90098 38994 ft 463 kts 116°
2026-04-12 03:00 58.99234 -137.78881 39002 ft 464 kts 116°
2026-04-12 03:01 58.96347 -137.67645 38991 ft 466 kts 116°
2026-04-12 03:01 58.93428 -137.56348 38837 ft 474 kts 117°
2026-04-12 03:02 58.91931 -137.50572 38171 ft 483 kts 117°
2026-04-12 03:02 58.90425 -137.44781 37525 ft 482 kts 117°
2026-04-12 03:02 58.88917 -137.38995 36816 ft 481 kts 117°
2026-04-12 03:02 58.87432 -137.33313 36121 ft 479 kts 117°
2026-04-12 03:03 58.85936 -137.27600 35530 ft 473 kts 117°
2026-04-12 03:03 58.84422 -137.21837 34443 ft 478 kts 117°
2026-04-12 03:03 58.82934 -137.16186 33607 ft 477 kts 117°
2026-04-12 03:03 58.81437 -137.10517 32932 ft 472 kts 117°
2026-04-12 03:04 58.79937 -137.04846 31833 ft 478 kts 117°
2026-04-12 03:04 58.78420 -136.99131 30846 ft 479 kts 117°
2026-04-12 03:04 58.76895 -136.93396 29807 ft 481 kts 117°
2026-04-12 03:04 58.75364 -136.87655 28711 ft 482 kts 117°
2026-04-12 03:05 58.73830 -136.81918 27545 ft 483 kts 117°
2026-04-12 03:05 58.72289 -136.76169 26296 ft 484 kts 117°
2026-04-12 03:05 58.70743 -136.70417 25287 ft 481 kts 117°
2026-04-12 03:05 58.69217 -136.64749 24356 ft 475 kts 117°
2026-04-12 03:06 58.67705 -136.59151 23446 ft 469 kts 117°
2026-04-12 03:06 58.66206 -136.53616 22551 ft 462 kts 117°
2026-04-12 03:06 58.64733 -136.48185 21660 ft 456 kts 117°
2026-04-12 03:06 58.63277 -136.42835 20783 ft 449 kts 117°
2026-04-12 03:07 58.61839 -136.37562 19911 ft 442 kts 117°
2026-04-12 03:07 58.60424 -136.32381 19029 ft 437 kts 118°
2026-04-12 03:07 58.59019 -136.27252 18152 ft 431 kts 118°
2026-04-12 03:07 58.57631 -136.22197 17278 ft 426 kts 118°
2026-04-12 03:08 58.56257 -136.17205 16431 ft 420 kts 118°
2026-04-12 03:08 58.54903 -136.12292 15587 ft 415 kts 118°
2026-04-12 03:08 58.53564 -136.07446 14796 ft 408 kts 118°
2026-04-12 03:08 58.52245 -136.02682 13963 ft 403 kts 118°
2026-04-12 03:09 58.50938 -135.97972 13137 ft 398 kts 118°
2026-04-12 03:09 58.49642 -135.93312 12316 ft 394 kts 118°
2026-04-12 03:09 58.48364 -135.88723 11505 ft 389 kts 118°
2026-04-12 03:09 58.47119 -135.84264 10934 ft 367 kts 118°
2026-04-12 03:10 58.45969 -135.80151 10789 ft 337 kts 118°
2026-04-12 03:10 58.44903 -135.76346 10633 ft 313 kts 118°
2026-04-12 03:10 58.43925 -135.72859 10351 ft 291 kts 118°
2026-04-12 03:10 58.42978 -135.69487 9858 ft 281 kts 118°
2026-04-12 03:11 58.42055 -135.66210 9486 ft 280 kts 118°
2026-04-12 03:11 58.41132 -135.62932 9115 ft 281 kts 118°
2026-04-12 03:11 58.40222 -135.59706 8822 ft 277 kts 118°
2026-04-12 03:11 58.39316 -135.56497 8568 ft 273 kts 118°
2026-04-12 03:12 58.38423 -135.53340 8329 ft 269 kts 118°
2026-04-12 03:12 58.37538 -135.50221 8073 ft 266 kts 118°
2026-04-12 03:12 58.36650 -135.47087 7819 ft 266 kts 117°
2026-04-12 03:12 58.36156 -135.43727 7570 ft 272 kts 92°
2026-04-12 03:13 58.36141 -135.40103 7352 ft 274 kts 90°
2026-04-12 03:13 58.36153 -135.36493 7098 ft 273 kts 89°
2026-04-12 03:13 58.36164 -135.32878 6846 ft 273 kts 90°
2026-04-12 03:13 58.36169 -135.29286 6593 ft 269 kts 90°
2026-04-12 03:14 58.36170 -135.25758 6333 ft 265 kts 90°
2026-04-12 03:14 58.36166 -135.22251 6086 ft 265 kts 90°
2026-04-12 03:14 58.36160 -135.18749 5895 ft 262 kts 90°
2026-04-12 03:14 58.36152 -135.15302 5789 ft 260 kts 90°
2026-04-12 03:15 58.36142 -135.11848 5659 ft 262 kts 90°
2026-04-12 03:15 58.36131 -135.08358 5490 ft 265 kts 90°
2026-04-12 03:15 58.36118 -135.04861 5300 ft 264 kts 90°
2026-04-12 03:15 58.36104 -135.01368 5048 ft 263 kts 90°
2026-04-12 03:16 58.36090 -134.97913 4751 ft 260 kts 90°
2026-04-12 03:16 58.36073 -134.94460 4358 ft 261 kts 90°
2026-04-12 03:16 58.36056 -134.90992 3989 ft 261 kts 90°
2026-04-12 03:16 58.36038 -134.87577 3612 ft 254 kts 90°
2026-04-12 03:17 58.36020 -134.84265 3196 ft 243 kts 90°
2026-04-12 03:17 58.36004 -134.81205 2842 ft 224 kts 90°
2026-04-12 03:17 58.35987 -134.78360 2483 ft 206 kts 90°
2026-04-12 03:17 58.35970 -134.75737 2157 ft 190 kts 90°
2026-04-12 03:18 58.35958 -134.73304 1875 ft 177 kts 89°
2026-04-12 03:18 58.35951 -134.71087 1604 ft 160 kts 91°
2026-04-12 03:18 58.35923 -134.69088 1359 ft 147 kts 91°
2026-04-12 03:18 58.35909 -134.67197 1097 ft 139 kts 90°
2026-04-12 03:19 58.35910 -134.65368 845 ft 139 kts 90°
2026-04-12 03:19 58.35901 -134.63539 581 ft 139 kts 91°
2026-04-12 03:19 58.35893 -134.61703 312 ft 138 kts 90°
2026-04-12 03:19 58.35808 -134.59909 96 ft 134 kts 104°
2026-04-12 03:20 58.35584 -134.58276 31 ft 113 kts 105°
2026-04-12 03:20 58.35449 -134.57293 34 ft 40 kts 104°
2026-04-12 03:20 58.35389 -134.56862 33 ft 24 kts 104°
2026-04-12 03:20 58.35426 -134.56674 33 ft 15 kts 12°
2026-04-12 03:21 58.35492 -134.56799 33 ft 15 kts 284°
2026-04-12 03:21 58.35519 -134.56995 33 ft 15 kts 284°
2026-04-12 03:21 58.35545 -134.57189 32 ft 15 kts 284°
2026-04-12 03:21 58.35571 -134.57374 33 ft 14 kts 285°
2026-04-12 03:22 58.35595 -134.57551 33 ft 14 kts 285°
2026-04-12 03:22 58.35619 -134.57719 32 ft 13 kts 285°
2026-04-12 03:22 58.35642 -134.57883 33 ft 13 kts 285°
2026-04-12 03:22 58.35665 -134.58042 33 ft 12 kts 285°
2026-04-12 03:23 58.35687 -134.58198 33 ft 12 kts 285°
2026-04-12 03:23 58.35716 -134.58302 33 ft 8 kts 331°
2026-04-12 03:23 58.35771 -134.58300 31 ft 8 kts 359°
2026-04-12 03:23 58.35818 -134.58301 33 ft 3 kts 358°
2026-04-12 03:24 58.35828 -134.58302 33 ft 0 kts 358°